Tracking 18840 objects as of 18-November-2017
HD Live streaming from Space Station
objects crossing your sky now

FENGYUN 1C DEB

Track FENGYUN 1C DEB now!
10-day predictions


NORAD ID: 38154
Int'l Code: 1999-025ERB
Perigee: 562.7 km
Apogee: 733.7 km
Inclination: 98.5 °
Period: 97.5 minutes
Semi major axis: 7019 km
RCS: 0.0005 m2 (small)
Launch date: May 10, 1999
Source: People's Republic of China (PRC)
Launch site: Taiyaun Space Center, China (TSC)

Note: This is SATELLITE DEBRIS
aabbcc
Your satellite tracking list
Your tracking list is empty




NASA's NSSDC Master Catalog

Two Line Element Set (TLE):
1 38154U 99025ERB 17319.02901866 +.00003177 +00000-0 +41376-3 0  9991
2 38154 098.4850 027.3366 0121863 089.7630 271.7542 14.76290447399304
Source of the keplerian elements: AFSPC